datetime,storage
2008-01-01,1383.40643
2008-01-02,1383.37562
2008-01-03,1383.33865
2008-01-04,1383.27827
2008-01-05,1383.62163
2008-01-06,1383.97753
2008-01-07,1384.3225
2008-01-08,1384.52097
2008-01-09,1384.51836
2008-01-10,1384.51077
2008-01-11,1384.48032
2008-01-12,1384.4417
2008-01-13,1384.4151
2008-01-14,1384.38921
2008-01-15,1384.37553
2008-01-16,1384.36998
2008-01-17,1384.36998
2008-01-18,1384.36998
2008-01-19,1384.36998
2008-01-20,1384.36998
2008-01-21,1384.36998
2008-01-22,1384.36998
2008-01-23,1384.36998
2008-01-24,1384.36998
2008-01-25,1384.36998
2008-01-26,1384.36998
2008-01-27,1384.36998
2008-01-28,1384.36998
2008-01-29,1384.36998
2008-01-30,1384.36998
2008-01-31,1384.36998
2008-02-01,1384.36998
2008-02-02,1384.36998
2008-02-03,1384.36998
2008-02-04,1384.36998
2008-02-05,1384.36998
2008-02-06,1384.36998
2008-02-07,1384.36998
2008-02-08,1384.36998
2008-02-09,1384.36998
2008-02-10,1384.36998
2008-02-11,1384.36998
2008-02-12,1384.36998
2008-02-13,1384.36998
2008-02-14,1384.36998
2008-02-15,1384.36998
2008-02-16,1384.36998
2008-02-17,1384.36998
2008-02-18,1384.36998
2008-02-19,1384.36998
2008-02-20,1384.36998
2008-02-21,1384.36998
2008-02-22,1384.36998
2008-02-23,1384.36998
2008-02-24,1384.36998
2008-02-25,1384.36998
2008-02-26,1384.36998
2008-02-27,1384.36998
2008-02-28,1384.36998
2008-02-29,1384.36998
2008-03-01,1384.36998
2008-03-02,1384.36998
2008-03-03,1384.36998
2008-03-04,1384.36998
2008-03-05,1384.36998
2008-03-06,1384.36998
2008-03-07,1384.36998
2008-03-08,1384.36998
2008-03-09,1384.36998
2008-03-10,1384.36998
2008-03-11,1384.36998
2008-03-12,1384.36998
2008-03-13,1384.36998
2008-03-14,1384.36998
2008-03-15,1384.36998
2008-03-16,1384.36998
2008-03-17,1384.36998
2008-03-18,1384.36998
2008-03-19,1384.36998
2008-03-20,1384.36998
2008-03-21,1384.36998
2008-03-22,1384.36998
2008-03-23,1384.36998
2008-03-24,1384.36998
2008-03-25,1384.36998
2008-03-26,1384.36998
2008-03-27,1384.36998
2008-03-28,1384.3371
2008-03-29,1384.25959
2008-03-30,1384.12545
2008-03-31,1383.94628
2008-04-01,1383.80696
2008-04-02,1383.5277
2008-04-03,1383.14678
2008-04-04,1382.81853
2008-04-05,1382.55339
2008-04-06,1382.28827
2008-04-07,1382.02315
2008-04-08,1381.75889
2008-04-09,1381.50723
2008-04-10,1381.71464
2008-04-11,1381.60212
2008-04-12,1381.50424
2008-04-13,1381.31793
2008-04-14,1381.12051
2008-04-15,1380.86159
2008-04-16,1380.39423
2008-04-17,1380.02527
2008-04-18,1379.87819
2008-04-19,1379.55009
2008-04-20,1379.22353
2008-04-21,1378.89695
2008-04-22,1378.56928
2008-04-23,1378.23859
2008-04-24,1377.7973
2008-04-25,1377.39144
2008-04-26,1377.0827
2008-04-27,1376.7601
2008-04-28,1376.43717
2008-04-29,1376.12461
2008-04-30,1375.69815
2008-05-01,1375.08154
2008-05-02,1374.77809
2008-05-03,1374.44882
2008-05-04,1374.11952
2008-05-05,1373.77961
2008-05-06,1373.45068
2008-05-07,1373.02584
2008-05-08,1372.5491
2008-05-09,1372.26912
2008-05-10,1371.91502
2008-05-11,1371.59037
2008-05-12,1371.29504
2008-05-13,1370.92412
2008-05-14,1370.78817
2008-05-15,1370.72037
2008-05-16,1370.49717
2008-05-17,1370.19107
2008-05-18,1369.88047
2008-05-19,1369.57748
2008-05-20,1369.28854
2008-05-21,1368.99714
2008-05-22,1368.686
2008-05-23,1369.1591
2008-05-24,1369.2042
2008-05-25,1369.24929
2008-05-26,1369.11844
2008-05-27,1368.83458
2008-05-28,1368.59036
2008-05-29,1368.34308
2008-05-30,1368.06118
2008-05-31,1367.82248
2008-06-01,1367.58357
2008-06-02,1367.35254
2008-06-03,1367.03953
2008-06-04,1366.74176
2008-06-05,1366.76823
2008-06-06,1366.63905
2008-06-07,1366.41611
2008-06-08,1366.19252
2008-06-09,1365.96892
2008-06-10,1365.73187
2008-06-11,1365.40126
2008-06-12,1365.07243
2008-06-13,1364.78814
2008-06-14,1364.51723
2008-06-15,1364.24751
2008-06-16,1363.96969
2008-06-17,1363.67081
2008-06-18,1363.46684
2008-06-19,1363.14684
2008-06-20,1362.81338
2008-06-21,1362.55901
2008-06-22,1362.29679
2008-06-23,1362.04167
2008-06-24,1361.88147
2008-06-25,1361.70651
2008-06-26,1361.4341
2008-06-27,766.157593
2008-06-28,170.994459
2008-06-29,0.005270795
2008-06-30,0.005273282
2008-07-01,0.005272929
2008-07-02,0.005272877
2008-07-03,0.005272152
2008-07-04,0.005271339
2008-07-05,0.005270519
2008-07-06,0.005269667
2008-07-07,0.005268844
2008-07-08,0.005268108
2008-07-09,0.005267177
2008-07-10,0.005266339
2008-07-11,0.005265686
2008-07-12,0.005265713
2008-07-13,0.00526574
2008-07-14,0.00526574
2008-07-15,0.005266231
2008-07-16,0.00526599
2008-07-17,0.005266451
2008-07-18,0.005265547
2008-07-19,0.005264711
2008-07-20,0.005263909
2008-07-21,0.005263102
2008-07-22,0.005263126
2008-07-23,0.005264638
2008-07-24,0.005264205
2008-07-25,0.005263752
2008-07-26,0.005263794
2008-07-27,0.005263836
2008-07-28,0.005263878
2008-07-29,0.005263018
2008-07-30,0.005262038
2008-07-31,0.005261248
2008-08-01,0.005260459
2008-08-02,0.005259716
2008-08-03,0.005258926
2008-08-04,0.005258137
2008-08-05,0.005257468
2008-08-06,0.005256523
2008-08-07,0.005257381
2008-08-08,0.005257393
2008-08-09,0.005256693
2008-08-10,0.005255963
2008-08-11,0.005255188
2008-08-12,0.005254399
2008-08-13,0.005253608
2008-08-14,0.005253128
2008-08-15,0.005252107
2008-08-16,0.005251879
2008-08-17,0.005251472
2008-08-18,0.005250841
2008-08-19,0.005250101
2008-08-20,0.005249087
2008-08-21,0.005248107
2008-08-22,0.005246915
2008-08-23,0.005246039
2008-08-24,0.005245084
2008-08-25,0.005244309
2008-08-26,0.005243641
2008-08-27,0.005244604
2008-08-28,0.005243528
2008-08-29,0.005242461
2008-08-30,0.005241722
2008-08-31,0.005240964
2008-09-01,0.005242566
2008-09-02,0.005241805
2008-09-03,0.005241133
2008-09-04,0.005240224
2008-09-05,0.005239487
2008-09-06,0.005238137
2008-09-07,0.005236715
2008-09-08,0.005235306
2008-09-09,0.005234329
2008-09-10,0.005235998
2008-09-11,0.005234774
2008-09-12,0.005234934
2008-09-13,0.005234016
2008-09-14,0.005232952
2008-09-15,0.005231833
2008-09-16,0.005230784
2008-09-17,0.005229763
2008-09-18,0.005228802
2008-09-19,0.005228306
2008-09-20,0.005227549
2008-09-21,0.005226852
2008-09-22,0.005226041
2008-09-23,0.005225153
2008-09-24,0.005224301
2008-09-25,0.005223414
2008-09-26,0.005222911
2008-09-27,0.00522203
2008-09-28,0.00522119
2008-09-29,0.005220292
2008-09-30,0.005219589
2008-10-01,0.005218876
2008-10-02,0.005217779
2008-10-03,0.005217169
2008-10-04,0.005216764
2008-10-05,0.005216406
2008-10-06,0.00521827
2008-10-07,0.005217691
2008-10-08,0.005217106
2008-10-09,0.005216429
2008-10-10,0.005215756
2008-10-11,0.005215408
2008-10-12,0.005215071
2008-10-13,0.005215355
2008-10-14,0.005215586
2008-10-15,0.005215918
2008-10-16,0.005215249
2008-10-17,0.005214679
2008-10-18,0.005214108
2008-10-19,0.005213542
2008-10-20,0.005212919
2008-10-21,0.00521205
2008-10-22,0.00521113
2008-10-23,0.005210308
2008-10-24,0.00520995
2008-10-25,0.005209412
2008-10-26,0.005208879
2008-10-27,0.0052083
2008-10-28,0.005207902
2008-10-29,0.0052075
2008-10-30,0.0052071
2008-10-31,0.005206657
2008-11-01,0.005206282
2008-11-02,0.00520591
2008-11-03,0.005205522
2008-11-04,0.005205151
2008-11-05,0.005205017
2008-11-06,0.005204874
2008-11-07,0.005204823
2008-11-08,0.005204733
2008-11-09,0.005204594
2008-11-10,0.0052045
2008-11-11,0.005204308
2008-11-12,0.005204063
2008-11-13,0.005203767
2008-11-14,0.005203463
2008-11-15,0.005203163
2008-11-16,0.005202911
2008-11-17,0.005202614
2008-11-18,0.005202313
2008-11-19,0.005202028
2008-11-20,0.005201722
2008-11-21,0.005201502
2008-11-22,0.005201278
2008-11-23,0.005201054
2008-11-24,0.005200783
2008-11-25,0.005200562
2008-11-26,0.005200325
2008-11-27,0.00520062
2008-11-28,0.005201477
2008-11-29,0.005201227
2008-11-30,0.005200939
2008-12-01,0.005200735
2008-12-02,0.00520053
2008-12-03,0.005200334
2008-12-04,0.00520015
2008-12-05,0.005199991
2008-12-06,0.005199823
2008-12-07,0.005199652
2008-12-08,0.005200075
2008-12-09,0.005200539
2008-12-10,0.005200395
2008-12-11,0.005200245
2008-12-12,0.00520008
2008-12-13,0.005199915
2008-12-14,0.005200882
2008-12-15,0.005201783
2008-12-16,0.005204622
2008-12-17,0.005208046
2008-12-18,0.005208122
2008-12-19,0.005208189
2008-12-20,0.005208102
2008-12-21,0.00520801
2008-12-22,0.005208786
2008-12-23,0.005211562
2008-12-24,0.005214505
2008-12-25,140.831662
2008-12-26,281.6795
2008-12-27,534.031377
2008-12-28,1325.42986
2008-12-29,2116.8004
2008-12-30,2908.16647
2008-12-31,3039.50814
2009-01-01,2741.93856
2009-01-02,2444.352
2009-01-03,2146.75562
2009-01-04,1850.67088
2009-01-05,1553.39713
2009-01-06,1255.83435
2009-01-07,958.288282
2009-01-08,660.742051
2009-01-09,363.205643
2009-01-10,65.6763069
2009-01-11,-0.12516057
2009-01-12,-0.12516057
2009-01-13,-0.12516057
2009-01-14,-0.12516057
2009-01-15,-0.12516057
2009-01-16,-0.12516057
2009-01-17,-0.12516057
2009-01-18,-0.12516057
2009-01-19,-0.12516057
2009-01-20,-0.12516057
2009-01-21,-0.12516057
2009-01-22,-0.12516057
2009-01-23,-0.12516057
2009-01-24,-0.12516057
2009-01-25,-0.12516057
2009-01-26,-0.12516057
2009-01-27,-0.12516057
2009-01-28,-0.12516057
2009-01-29,-0.12516057
2009-01-30,-0.12516057
2009-01-31,-0.12516057
2009-02-01,-0.12516057
2009-02-02,-0.12516057
2009-02-03,-0.12516057
2009-02-04,-0.12516057
2009-02-05,-0.12516057
2009-02-06,-0.12516057
2009-02-07,-0.12516057
2009-02-08,-0.12516057
2009-02-09,-0.12516057
2009-02-10,-0.12516057
2009-02-11,-0.12516057
2009-02-12,-0.12516057
2009-02-13,-0.12516057
2009-02-14,-0.12516057
2009-02-15,-0.12516057
2009-02-16,-0.12516057
2009-02-17,-0.12516057
2009-02-18,-0.12516057
2009-02-19,-0.12516057
2009-02-20,-0.12516057
2009-02-21,-0.12516057
2009-02-22,-0.12516057
2009-02-23,-0.12516057
2009-02-24,-0.12516057
2009-02-25,-0.12516057
2009-02-26,-0.12516057
2009-02-27,-0.12516057
2009-02-28,-0.12516057
2009-03-01,-0.12516057
2009-03-02,-0.12516057
2009-03-03,-0.12516057
2009-03-04,-0.12516057
2009-03-05,-0.12516057
2009-03-06,-0.12516057
2009-03-07,-0.12516057
2009-03-08,-0.12516057
2009-03-09,-0.12516057
2009-03-10,-0.12516057
2009-03-11,-0.12516057
2009-03-12,-0.12516057
2009-03-13,-0.12516057
2009-03-14,-0.12516057
2009-03-15,-0.12516057
2009-03-16,-0.12516057
2009-03-17,-0.12516057
2009-03-18,-0.12516057
2009-03-19,-0.12516057
2009-03-20,-0.12516057
2009-03-21,-0.12516057
2009-03-22,-0.12516057
2009-03-23,-0.12516057
2009-03-24,-0.12516057
2009-03-25,-0.12516057
2009-03-26,-0.12516057
2009-03-27,-0.12516057
2009-03-28,-0.12516057
2009-03-29,-0.12516057
2009-03-30,-0.12516057
2009-03-31,-0.12516057
2009-04-01,-0.12516057
2009-04-02,-0.12516057
2009-04-03,-0.12516057
2009-04-04,-0.12516057
2009-04-05,-0.12516057
2009-04-06,-0.12516057
2009-04-07,-0.12516057
2009-04-08,-0.12516057
2009-04-09,-0.12516057
2009-04-10,-0.12516057
2009-04-11,-0.12516057
2009-04-12,-0.12516057
2009-04-13,-0.12516057
2009-04-14,-0.12516057
2009-04-15,-0.12516057
2009-04-16,-0.12516057
2009-04-17,-0.12516057
2009-04-18,-0.12516057
2009-04-19,-0.12516057
2009-04-20,-0.12516057
2009-04-21,-0.12516057
2009-04-22,-0.12516057
2009-04-23,-0.12516057
2009-04-24,-0.12516057
2009-04-25,-0.12516057
2009-04-26,-0.12516057
2009-04-27,-0.12516057
2009-04-28,-0.12516057
2009-04-29,-0.12516057
2009-04-30,-0.12516057
2009-05-01,-0.12516057
2009-05-02,-0.12516057
2009-05-03,-0.12516057
2009-05-04,-0.12516057
2009-05-05,-0.12516057
2009-05-06,-0.12516057
2009-05-07,-0.12516057
2009-05-08,-0.12516057
2009-05-09,-0.12516057
2009-05-10,-0.12516057
2009-05-11,-0.12516057
2009-05-12,-0.12516057
2009-05-13,-0.12516057
2009-05-14,-0.12516057
2009-05-15,-0.12516057
2009-05-16,-0.12516057
2009-05-17,-0.12516057
2009-05-18,-0.12516057
2009-05-19,-0.12516057
2009-05-20,-0.12516057
2009-05-21,-0.12516057
2009-05-22,-0.12516057
2009-05-23,-0.12516057
2009-05-24,-0.12516057
2009-05-25,-0.12516057
2009-05-26,-0.12516057
2009-05-27,-0.12516057
2009-05-28,-0.12516057
2009-05-29,-0.12516057
2009-05-30,-0.12516057
2009-05-31,-0.12516057
2009-06-01,-0.12516057
2009-06-02,-0.12516057
2009-06-03,-0.12516057
2009-06-04,-0.12516057
2009-06-05,-0.12516057
2009-06-06,-0.12516057
2009-06-07,-0.12516057
2009-06-08,-0.12516057
2009-06-09,-0.12516057
2009-06-10,-0.12516057
2009-06-11,-0.12516057
2009-06-12,-0.12516057
2009-06-13,-0.12516057
2009-06-14,-0.12516057
2009-06-15,-0.12516057
2009-06-16,-0.12516057
2009-06-17,-0.12516057
2009-06-18,-0.12516057
2009-06-19,-0.12516057
2009-06-20,-0.12516057
2009-06-21,-0.12516057
2009-06-22,-0.12516057
2009-06-23,-0.12516057
2009-06-24,-0.12516057
2009-06-25,-0.12516057
2009-06-26,-0.12516057
2009-06-27,-0.12516057
2009-06-28,-0.12516057
2009-06-29,-0.12516057
2009-06-30,-0.12516057
2009-07-01,-0.12516057
2009-07-02,-0.12516057
2009-07-03,-0.12516057
2009-07-04,-0.12516057
2009-07-05,-0.12516057
2009-07-06,-0.12516057
2009-07-07,-0.12516057
2009-07-08,-0.12516057
2009-07-09,-0.12516057
2009-07-10,-0.12516057
2009-07-11,-0.12516057
2009-07-12,-0.12516057
2009-07-13,-0.12516057
2009-07-14,-0.12516057
2009-07-15,-0.12516057
2009-07-16,-0.12516057
2009-07-17,-0.12516057
2009-07-18,-0.12516057
2009-07-19,-0.12516057
2009-07-20,-0.12516057
2009-07-21,-0.12516057
2009-07-22,-0.12516057
2009-07-23,-0.12516057
2009-07-24,-0.12516057
2009-07-25,-0.12516057
2009-07-26,-0.12516057
2009-07-27,-0.12516057
2009-07-28,-0.12516057
2009-07-29,-0.12516057
2009-07-30,-0.12516057
2009-07-31,-0.12516057
2009-08-01,-0.12516057
2009-08-02,-0.12516057
2009-08-03,-0.12516057
2009-08-04,-0.12516057
2009-08-05,-0.12516057
2009-08-06,-0.12516057
2009-08-07,-0.12516057
2009-08-08,-0.12516057
2009-08-09,-0.12516057
2009-08-10,-0.12516057
2009-08-11,-0.12516057
2009-08-12,-0.12516057
2009-08-13,-0.12516057
2009-08-14,-0.12516057
2009-08-15,-0.12516057
2009-08-16,-0.12516057
2009-08-17,-0.12516057
2009-08-18,-0.12516057
2009-08-19,-0.12516057
2009-08-20,-0.12516057
2009-08-21,-0.12516057
2009-08-22,-0.12516057
2009-08-23,-0.12516057
2009-08-24,-0.12516057
2009-08-25,-0.12516057
2009-08-26,-0.12516057
2009-08-27,-0.12516057
2009-08-28,-0.12516057
2009-08-29,-0.12516057
2009-08-30,-0.12516057
2009-08-31,-0.12516057
2009-09-01,-0.12516057
2009-09-02,-0.12516057
2009-09-03,-0.12516057
2009-09-04,-0.12516057
2009-09-05,-0.12516057
2009-09-06,-0.12516057
2009-09-07,-0.12516057
2009-09-08,-0.12516057
2009-09-09,-0.12516057
2009-09-10,-0.12516057
2009-09-11,-0.12516057
2009-09-12,-0.12516057
2009-09-13,-0.12516057
2009-09-14,-0.12516057
2009-09-15,-0.12516057
2009-09-16,-0.12516057
2009-09-17,-0.12516057
2009-09-18,-0.12516057
2009-09-19,-0.12516057
2009-09-20,-0.12516057
2009-09-21,-0.12516057
2009-09-22,-0.12516057
2009-09-23,-0.12516057
2009-09-24,-0.12516057
2009-09-25,-0.12516057
2009-09-26,383.580625
2009-09-27,1964.4615
2009-09-28,3640.03953
2009-09-29,5325.30312
2009-09-30,5613.30734
2009-10-01,5052.50469
2009-10-02,5051.70991
2009-10-03,5050.91391
2009-10-04,5050.07271
2009-10-05,5049.23086
2009-10-06,5048.34942
2009-10-07,5047.70011
2009-10-08,5049.64136
2009-10-09,5049.62244
2009-10-10,5048.82784
2009-10-11,5048.03348
2009-10-12,5047.23636
2009-10-13,5047.05377
2009-10-14,5046.70099
2009-10-15,5046.13419
2009-10-16,5045.48439
2009-10-17,5044.92339
2009-10-18,5044.3637
2009-10-19,5043.76756
2009-10-20,5042.73843
2009-10-21,5048.62946
2009-10-22,5050.14943
2009-10-23,5050.10046
2009-10-24,5049.54351
2009-10-25,5049.23159
2009-10-26,5048.8783
2009-10-27,5048.6224
2009-10-28,5049.15253
2009-10-29,5048.87266
2009-10-30,5048.61765
2009-10-31,5048.32029
2009-11-01,5047.98907
2009-11-02,5047.65829
2009-11-03,5047.29831
2009-11-04,5046.9518
2009-11-05,5046.55859
2009-11-06,5046.16229
2009-11-07,5045.76519
2009-11-08,5045.39845
2009-11-09,5045.03242
2009-11-10,5044.69187
2009-11-11,5044.33919
2009-11-12,5043.9914
2009-11-13,5043.63663
2009-11-14,5043.46822
2009-11-15,5043.39816
2009-11-16,5043.13305
2009-11-17,5042.87607
2009-11-18,5042.5757
2009-11-19,5042.27409
2009-11-20,5041.97202
2009-11-21,5041.66481
2009-11-22,5041.37939
2009-11-23,5041.09786
2009-11-24,5040.88127
2009-11-25,5040.64723
2009-11-26,5040.37382
2009-11-27,5040.06064
2009-11-28,5039.79029
2009-11-29,5039.53271
2009-11-30,5039.26157
2009-12-01,5039.08498
2009-12-02,5038.89846
2009-12-03,5038.7277
2009-12-04,5038.63588
2009-12-05,5038.53439
2009-12-06,5038.41069
2009-12-07,5038.60598
2009-12-08,5044.35653
2009-12-09,5044.35255
2009-12-10,5044.2922
2009-12-11,5044.21911
2009-12-12,5044.13011
2009-12-13,5043.98087
2009-12-14,5044.41682
2009-12-15,5044.28644
2009-12-16,5044.16542
2009-12-17,5044.0204
2009-12-18,5043.86727
2009-12-19,5043.72966
2009-12-20,5043.58903
2009-12-21,5043.43943
2009-12-22,5043.34331
2009-12-23,5044.85727
2009-12-24,5044.68064
2009-12-25,5044.60585
2009-12-26,5044.5191
2009-12-27,5044.43241
2009-12-28,5044.35634
2009-12-29,5044.42695
2009-12-30,5044.55133
2009-12-31,5045.25658
2010-01-01,4819.17331
2010-01-02,4555.89087
2010-01-03,4316.25714
2010-01-04,4029.95763
2010-01-05,3792.0296
2010-01-06,3624.26701
2010-01-07,3457.39112
2010-01-08,3266.39112
2010-01-09,3076.39112
2010-01-10,2838.39112
2010-01-11,2625.49112
2010-01-12,2434.59112
2010-01-13,2198.30112
2010-01-14,2056.30112
2010-01-15,1938.83997
2010-01-16,1750.84658
2010-01-17,1585.84162
2010-01-18,1467.84493
2010-01-19,1422.04493
2010-01-20,1304.42509
2010-01-21,1187.78509
2010-01-22,999.735091
2010-01-23,995.655091
2010-01-24,953.655091
2010-01-25,881.955091
2010-01-26,811.955091
2010-01-27,765.455091
2010-01-28,625.455091
2010-01-29,555.455091
2010-01-30,485.455091
2010-01-31,415.455091
2010-02-01,369.455091
2010-02-02,252.455091
2010-02-03,182.455091
2010-02-04,159.845091
2010-02-05,154.815091
2010-02-06,154.815091
2010-02-07,154.815091
2010-02-08,154.815091
2010-02-09,154.815091
2010-02-10,108.525091
2010-02-11,62.7950915
2010-02-12,16.7550915
2010-02-13,-0.00490852
2010-02-14,-0.00490852
2010-02-15,-0.00490852
2010-02-16,-0.00490852
2010-02-17,-0.00490852
2010-02-18,-0.00490852
2010-02-19,-0.00490852
2010-02-20,-0.00490852
2010-02-21,-0.00490852
2010-02-22,-0.00490852
2010-02-23,-0.00490852
2010-02-24,-0.00490852
2010-02-25,-0.00490852
2010-02-26,-0.00490852
2010-02-27,-0.00490852
2010-02-28,-0.00490852
2010-03-01,-0.00490852
2010-03-02,-0.00490852
2010-03-03,-0.00490852
2010-03-04,-0.00490852
2010-03-05,-0.00490852
2010-03-06,-0.00490852
2010-03-07,-0.00490852
2010-03-08,-0.00490852
2010-03-09,-0.00490852
2010-03-10,-0.00490852
2010-03-11,-0.00490852
2010-03-12,-0.00490852
2010-03-13,-0.00490852
2010-03-14,-0.00490852
2010-03-15,-0.00490852
2010-03-16,-0.00490852
2010-03-17,-0.00490852
2010-03-18,-0.00490852
2010-03-19,-0.00490852
2010-03-20,-0.00490852
2010-03-21,-0.00490852
2010-03-22,-0.00490852
2010-03-23,-0.00490852
2010-03-24,-0.00490852
2010-03-25,-0.00490852
2010-03-26,-0.00490852
2010-03-27,-0.00490852
2010-03-28,-0.00490852
2010-03-29,-0.00490852
2010-03-30,-0.00490852
2010-03-31,-0.00490852
2010-04-01,-0.00490852
2010-04-02,-0.00490852
2010-04-03,-0.00490852
2010-04-04,-0.00490852
2010-04-05,-0.00490852
2010-04-06,-0.00490852
2010-04-07,-0.00490852
2010-04-08,-0.00490852
2010-04-09,-0.00490852
2010-04-10,-0.00490852
2010-04-11,-0.00490852
2010-04-12,-0.00490852
2010-04-13,-0.00490852
2010-04-14,-0.00490852
2010-04-15,-0.00490852
2010-04-16,-0.00490852
2010-04-17,-0.00490852
2010-04-18,-0.00490852
2010-04-19,-0.00490852
2010-04-20,-0.00490852
2010-04-21,-0.00490852
2010-04-22,-0.00490852
2010-04-23,-0.00490852
2010-04-24,-0.00490852
2010-04-25,-0.00490852
2010-04-26,-0.00490852
2010-04-27,-0.00490852
2010-04-28,-0.00490852
2010-04-29,-0.00490852
2010-04-30,-0.00490852
2010-05-01,-0.00490852
2010-05-02,-0.00490852
2010-05-03,-0.00490852
2010-05-04,-0.00490852
2010-05-05,-0.00490852
2010-05-06,-0.00490852
2010-05-07,-0.00490852
2010-05-08,-0.00490852
2010-05-09,-0.00490852
2010-05-10,-0.00490852
2010-05-11,-0.00490852
2010-05-12,-0.00490852
2010-05-13,-0.00490852
2010-05-14,-0.00490852
2010-05-15,-0.00490852
2010-05-16,-0.00490852
2010-05-17,-0.00490852
2010-05-18,-0.00490852
2010-05-19,-0.00490852
2010-05-20,-0.00490852
2010-05-21,-0.00490852
2010-05-22,-0.00490852
2010-05-23,-0.00490852
2010-05-24,-0.00490852
2010-05-25,-0.00490852
2010-05-26,-0.00490852
2010-05-27,-0.00490852
2010-05-28,-0.00490852
2010-05-29,-0.00490852
2010-05-30,-0.00490852
2010-05-31,-0.00490852
2010-06-01,-0.00490852
2010-06-02,-0.00490852
2010-06-03,-0.00490852
2010-06-04,-0.00490852
2010-06-05,-0.00490852
2010-06-06,-0.00490852
2010-06-07,-0.00490852
2010-06-08,-0.00490852
2010-06-09,-0.00490852
2010-06-10,-0.00490852
2010-06-11,-0.00490852
2010-06-12,-0.00490852
2010-06-13,-0.00490852
2010-06-14,-0.00490852
2010-06-15,-0.00490852
2010-06-16,-0.00490852
2010-06-17,-0.00490852
2010-06-18,-0.00490852
2010-06-19,-0.00490852
2010-06-20,-0.00490852
2010-06-21,-0.00490852
2010-06-22,-0.00490852
2010-06-23,-0.00490852
2010-06-24,-0.00490852
2010-06-25,-0.00490852
2010-06-26,-0.00490852
2010-06-27,-0.00490852
2010-06-28,-0.00490852
2010-06-29,-0.00490852
2010-06-30,-0.00490852
2010-07-01,-0.00490852
2010-07-02,-0.00490852
2010-07-03,-0.00490852
2010-07-04,-0.00490852
2010-07-05,-0.00490852
2010-07-06,-0.00490852
2010-07-07,-0.00490852
2010-07-08,-0.00490852
2010-07-09,-0.00490852
2010-07-10,-0.00490852
2010-07-11,-0.00490852
2010-07-12,-0.00490852
2010-07-13,-0.00490852
2010-07-14,-0.00490852
2010-07-15,-0.00490852
2010-07-16,-0.00490852
2010-07-17,-0.00490852
2010-07-18,-0.00490852
2010-07-19,-0.00490852
2010-07-20,-0.00490852
2010-07-21,-0.00490852
2010-07-22,-0.00490852
2010-07-23,-0.00490852
2010-07-24,-0.00490852
2010-07-25,-0.00490852
2010-07-26,-0.00490852
2010-07-27,-0.00490852
2010-07-28,-0.00490852
2010-07-29,-0.00490852
2010-07-30,-0.00490852
2010-07-31,-0.00490852
2010-08-01,-0.00490852
2010-08-02,-0.00490852
2010-08-03,-0.00490852
2010-08-04,-0.00490852
2010-08-05,-0.00490852
2010-08-06,-0.00490852
2010-08-07,-0.00490852
2010-08-08,-0.00490852
2010-08-09,-0.00490852
2010-08-10,-0.00490852
2010-08-11,-0.00490852
2010-08-12,-0.00490852
2010-08-13,-0.00490852
2010-08-14,-0.00490852
2010-08-15,-0.00490852
2010-08-16,-0.00490852
2010-08-17,-0.00490852
2010-08-18,-0.00490852
2010-08-19,-0.00490852
2010-08-20,-0.00490852
2010-08-21,-0.00490852
2010-08-22,-0.00490852
2010-08-23,-0.00490852
2010-08-24,-0.00490852
2010-08-25,-0.00490852
2010-08-26,-0.00490852
2010-08-27,-0.00490852
2010-08-28,-0.00490852
2010-08-29,-0.00490852
2010-08-30,-0.00490852
2010-08-31,-0.00490852
2010-09-01,-0.00490852
2010-09-02,-0.00490852
2010-09-03,-0.00490852
2010-09-04,-0.00490852
2010-09-05,-0.00490852
2010-09-06,-0.00490852
2010-09-07,-0.00490852
2010-09-08,-0.00490852
2010-09-09,-0.00490852
2010-09-10,-0.00490852
2010-09-11,-0.00490852
2010-09-12,-0.00490852
2010-09-13,-0.00490852
2010-09-14,-0.00490852
2010-09-15,-0.00490852
2010-09-16,-0.00490852
2010-09-17,-0.00490852
2010-09-18,-0.00490852
2010-09-19,-0.00490852
2010-09-20,-0.00490852
2010-09-21,-0.00490852
2010-09-22,-0.00490852
2010-09-23,-0.00490852
2010-09-24,-0.00490852
2010-09-25,-0.00490852
2010-09-26,-0.00490852
2010-09-27,-0.00490852
2010-09-28,-0.00490852
2010-09-29,-0.00490852
2010-09-30,-0.00490852
2010-10-01,-0.00490852
2010-10-02,-0.00490852
2010-10-03,-0.00490852
2010-10-04,-0.00490852
2010-10-05,-0.00490852
2010-10-06,-0.00490852
2010-10-07,-0.00490852
2010-10-08,-0.00490852
2010-10-09,-0.00490852
2010-10-10,-0.00490852
2010-10-11,-0.00490852
2010-10-12,-0.00490852
2010-10-13,-0.00490852
2010-10-14,-0.00490852
2010-10-15,-0.00490852
2010-10-16,-0.00490852
2010-10-17,-0.00490852
2010-10-18,-0.00490852
2010-10-19,-0.00490852
2010-10-20,-0.00490852
2010-10-21,-0.00490852
2010-10-22,-0.00490852
2010-10-23,-0.00490852
2010-10-24,-0.00490852
2010-10-25,-0.00490852
2010-10-26,-0.00490852
2010-10-27,-0.00490852
2010-10-28,-0.00490852
2010-10-29,-0.00490852
2010-10-30,-0.00490852
2010-10-31,-0.00490852
2010-11-01,-0.00490852
2010-11-02,-0.00490852
2010-11-03,-0.00490852
2010-11-04,-0.00490852
2010-11-05,-0.00490852
2010-11-06,-0.00490852
2010-11-07,-0.00490852
2010-11-08,-0.00490852
2010-11-09,-0.00490852
2010-11-10,-0.00490852
2010-11-11,-0.00490852
2010-11-12,-0.00490852
2010-11-13,-0.00490852
2010-11-14,-0.00490852
2010-11-15,-0.00490852
2010-11-16,-0.00490852
2010-11-17,-0.00490852
2010-11-18,-0.00490852
2010-11-19,-0.00490852
2010-11-20,-0.00490852
2010-11-21,-0.00490852
2010-11-22,-0.00490852
2010-11-23,-0.00490852
2010-11-24,-0.00490852